DECAYED

STARLINK-2580, 48279 (Decayed)

Orbit data source: Space-Track

STARLINK-2580, 48279 was a payload satellite owned by SpaceX/Seattle (US) in LEO that was launched on Thu, 29 Apr 2021 UTC via an FALCON 9 launch vehicle from the Air Force Eastern Test Range (AFETR). Payload-class satellites include a variety of spacecraft equipped with specific instruments for various scientific and technological missions. These include communications satellites like Starlink; space stations such as the ISS; scientific satellites like the Hubble; Earth observation satellites from companies like Planet Labs, Umbra, and HawkEye 360; GPS; miniature CubeSats for education and research; and military/defense satellites.

Not visible in the next 10 days
Identifier
48279, 2021-036D
Orbit
Decayed
Country
Flag of USUS
Related business
Manufacturer
SpaceX/Seattle
Mission
Decayed Commercial Communications
Bus & Motor
STARLINK, Unknown motor
Mass
260 kg wet, ~248 kg dry
Launch date (UTC)
2021-04-29 (5 years ago)
Launch vehicle
FALCON 9
Launch site
Air Force Eastern Test Range (AFETR)
Object type
Payload
Rocket body
Debris
Shape & HBR
Box + 1 Pan, 10.1 m
Radar Cross Section
13.562 m², Large (>1 m²)

Expand to show TLE details & history
Last TLE update: 7 months ago

TLE from 7 months ago
0 STARLINK-2580
1 48279U 21036D   25107.25676639  .07119188  12156-4  10666-2 0  9996
2 48279  53.0356  29.2677 0006564 252.5376 238.4259 16.33525960220779
Epoch: 2025-04-17T06:09Z
TLE epoch observation values (Epoch: 2025-04-17T06:09:44.616Z)
Latitude
37.27865°
Longitude
-123.5205°
Altitude
188.338 km
Speed
7.797 km/s
True Right ascension
11h 38m 11s
True Declination
37° 05' 55"
Sunlit
Object was in full shadow at epoch
Visualization orbit readout
Latitude
Unknown
Longitude
Unknown
Altitude
Unknown
Speed
Unknown
Apparent Right ascension
Unknown
Apparent Declination
Unknown
Sunlit
N/A
Visualization observer readout
Local Sidereal Time
03:05:08
Azimuth
Unknown
Elevation
Unknown
Doppler factor
Unknown
Orbital elements
Apogee altitude
187.677 km
Perigee altitude
179.063 km
Semi-major axis
6,561.507 km
Eccentricity
0.00066
Inclination
53.0356°
RAAN
29.2677°
Arg. of periapsis
252.5376°
True anomaly
238.36184°
Mean anomaly
238.4259°
Eccentric anomaly
238.39387°
Mean motion
4.08355 °/min
Orbital period
88.16 mins
BSTAR
0.0010666
Loading maneuver chart data...
Computing Atmospheric mass density...
Loading historical data...
Loading historical data...
Loading historical data...
Loading historical data...
Loading historical data...
Loading historical data...
Loading historical data...

Documentation

Showing up to 5 results
|